| time (UTC) | temp C | wind direction | speed KPH | gust KPH | rain 1hr cm | rain 24hr cm | rain mn cm | humidity % | barometer mb |
| 20260505111306 | 27 | 73 | 0.0 | 0.0 | 0.00 | 0.00 | 0.00 | 89 | 1018.4 |
| 20260505110802 | 26 | 168 | 0.0 | 0.0 | 0.00 | 0.00 | 0.00 | 92 | 1018.1 |
| 20260505110300 | 25 | 170 | 0.0 | 0.0 | 0.00 | 0.00 | 0.00 | 93 | 1018.1 |
| 20260505101734 | 23 | 267 | 0.0 | 0.0 | 0.00 | 0.00 | 0.00 | 96 | 1017.9 |
| 20260505101230 | 23 | 244 | 0.0 | 0.0 | 0.00 | 0.00 | 0.00 | 96 | 1017.8 |
| 20260505100726 | 22 | 252 | 0.0 | 0.0 | 0.00 | 0.00 | 0.00 | 96 | 1017.6 |
| 20260505100223 | 22 | 249 | 0.0 | 1.6 | 0.00 | 0.00 | 0.00 | 96 | 1017.8 |
| 20260505095724 | 22 | 244 | 0.0 | 0.0 | 0.00 | 0.00 | 0.00 | 95 | 1017.6 |
| 20260505095222 | 22 | 243 | 0.0 | 0.0 | 0.00 | 0.00 | 0.00 | 95 | 1017.6 |
| 20260505094717 | 23 | 242 | 0.0 | 0.0 | 0.00 | 0.00 | 0.00 | 95 | 1017.5 |
| 20260505094214 | 23 | 235 | 0.0 | 0.0 | 0.00 | 0.00 | 0.00 | 96 | 1017.6 |
| 20260505093710 | 23 | 235 | 0.0 | 1.6 | 0.00 | 0.00 | 0.00 | 95 | 1017.3 |
| 20260505093208 | 23 | 235 | 0.0 | 0.0 | 0.00 | 0.00 | 0.00 | 95 | 1017.6 |
| 20260505092704 | 23 | 248 | 1.6 | 1.6 | 0.00 | 0.00 | 0.00 | 95 | 1017.4 |
| 20260505092203 | 23 | 273 | 1.6 | 1.6 | 0.00 | 0.00 | 0.00 | 95 | 1017.5 |
| 20260505091700 | 23 | 273 | 0.0 | 1.6 | 0.00 | 0.00 | 0.00 | 95 | 1017.5 |
| 20260505091158 | 23 | 274 | 1.6 | 1.6 | 0.00 | 0.00 | 0.00 | 95 | 1017.4 |
| 20260505090655 | 23 | 275 | 0.0 | 0.0 | 0.00 | 0.00 | 0.00 | 95 | 1017.3 |
| 20260505090154 | 23 | 272 | 0.0 | 0.0 | 0.00 | 0.00 | 0.00 | 95 | 1017.5 |
| 20260505085650 | 23 | 272 | 0.0 | 0.0 | 0.00 | 0.00 | 0.00 | 95 | 1017.4 |
| 20260505085149 | 23 | 272 | 0.0 | 1.6 | 0.00 | 0.00 | 0.00 | 95 | 1017.3 |
| 20260505084646 | 23 | 272 | 0.0 | 1.6 | 0.00 | 0.00 | 0.00 | 95 | 1017.3 |
| 20260505084144 | 23 | 272 | 0.0 | 1.6 | 0.00 | 0.00 | 0.00 | 95 | 1017.2 |
| 20260505083641 | 23 | 277 | 1.6 | 1.6 | 0.00 | 0.00 | 0.00 | 96 | 1017.3 |
| 20260505083138 | 23 | 279 | 0.0 | 0.0 | 0.00 | 0.00 | 0.00 | 95 | 1017.2 |
| 20260505082634 | 23 | 279 | 0.0 | 0.0 | 0.00 | 0.00 | 0.00 | 95 | 1017.3 |
| 20260505082131 | 23 | 275 | 0.0 | 0.0 | 0.00 | 0.00 | 0.00 | 95 | 1017.0 |
| 20260505081627 | 23 | 269 | 0.0 | 0.0 | 0.00 | 0.00 | 0.00 | 95 | 1017.2 |
| 20260505081125 | 23 | 269 | 0.0 | 1.6 | 0.00 | 0.00 | 0.00 | 95 | 1017.0 |
| 20260505080621 | 23 | 267 | 0.0 | 1.6 | 0.00 | 0.00 | 0.00 | 96 | 1016.9 |
| 20260505080117 | 23 | 257 | 0.0 | 1.6 | 0.00 | 0.00 | 0.00 | 96 | 1017.1 |
| 20260505075613 | 23 | 256 | 0.0 | 0.0 | 0.00 | 0.00 | 0.00 | 96 | 1017.1 |
| 20260505075110 | 23 | 236 | 0.0 | 0.0 | 0.00 | 0.00 | 0.00 | 95 | 1017.0 |
| 20260505074607 | 23 | 231 | 0.0 | 1.6 | 0.00 | 0.00 | 0.00 | 95 | 1017.0 |
| 20260505074104 | 23 | 263 | 0.0 | 0.0 | 0.00 | 0.00 | 0.00 | 96 | 1016.9 |
| 20260505073602 | 23 | 263 | 1.6 | 1.6 | 0.00 | 0.00 | 0.00 | 95 | 1016.9 |
| 20260505073100 | 23 | 275 | 0.0 | 0.0 | 0.00 | 0.00 | 0.00 | 95 | 1017.1 |
| 20260505072555 | 23 | 285 | 0.0 | 1.6 | 0.00 | 0.00 | 0.00 | 95 | 1016.9 |
| 20260505072052 | 23 | 304 | 1.6 | 1.6 | 0.00 | 0.00 | 0.00 | 95 | 1017.1 |
| 20260505071547 | 23 | 288 | 1.6 | 1.6 | 0.00 | 0.00 | 0.00 | 95 | 1017.1 |
| 20260505071046 | 23 | 288 | 1.6 | 1.6 | 0.00 | 0.00 | 0.00 | 95 | 1016.9 |
| 20260505070543 | 23 | 286 | 1.6 | 1.6 | 0.00 | 0.00 | 0.00 | 95 | 1017.0 |
| 20260505070039 | 23 | 262 | 0.0 | 0.0 | 0.00 | 0.00 | 0.00 | 95 | 1016.8 |
| 20260505065535 | 23 | 313 | 0.0 | 1.6 | 0.00 | 0.00 | 0.00 | 95 | 1016.9 |
| 20260505065032 | 23 | 312 | 1.6 | 1.6 | 0.00 | 0.00 | 0.00 | 95 | 1016.9 |
| 20260505064528 | 23 | 301 | 0.0 | 0.0 | 0.00 | 0.00 | 0.00 | 94 | 1017.0 |
| 20260505064027 | 23 | 295 | 0.0 | 0.0 | 0.00 | 0.00 | 0.00 | 94 | 1017.0 |
| 20260505063524 | 23 | 282 | 0.0 | 0.0 | 0.00 | 0.00 | 0.00 | 94 | 1017.1 |
| 20260505063019 | 23 | 281 | 0.0 | 0.0 | 0.00 | 0.00 | 0.00 | 94 | 1017.0 |
| 20260505062517 | 23 | 281 | 0.0 | 0.0 | 0.00 | 0.00 | 0.00 | 94 | 1017.2 |
| 20260505062014 | 23 | 281 | 0.0 | 0.0 | 0.00 | 0.00 | 0.00 | 94 | 1016.9 |
| 20260505061511 | 23 | 281 | 0.0 | 0.0 | 0.00 | 0.00 | 0.00 | 95 | 1017.1 |
| 20260505061009 | 23 | 281 | 0.0 | 0.0 | 0.00 | 0.00 | 0.00 | 95 | 1017.1 |
| 20260505060506 | 23 | 281 | 0.0 | 0.0 | 0.00 | 0.00 | 0.00 | 94 | 1017.2 |
| 20260505060002 | 23 | 277 | 0.0 | 0.0 | 0.00 | 0.00 | 0.00 | 95 | 1017.4 |
| 20260505055458 | 23 | 277 | 0.0 | 0.0 | 0.00 | 0.00 | 0.00 | 95 | 1017.3 |
| 20260505054955 | 23 | 278 | 0.0 | 0.0 | 0.00 | 0.00 | 0.00 | 95 | 1017.5 |
| 20260505054452 | 23 | 289 | 0.0 | 0.0 | 0.00 | 0.00 | 0.00 | 94 | 1017.7 |
| 20260505053950 | 24 | 324 | 0.0 | 0.0 | 0.00 | 0.00 | 0.00 | 94 | 1017.5 |
| 20260505053447 | 24 | 322 | 0.0 | 0.0 | 0.00 | 0.00 | 0.00 | 94 | 1017.6 |
| 20260505052944 | 24 | 323 | 0.0 | 0.0 | 0.00 | 0.00 | 0.00 | 94 | 1017.9 |
| 20260505052441 | 24 | 322 | 0.0 | 0.0 | 0.00 | 0.00 | 0.00 | 94 | 1017.9 |
| 20260505051938 | 24 | 322 | 0.0 | 0.0 | 0.00 | 0.00 | 0.00 | 94 | 1017.7 |
| 20260505051435 | 24 | 322 | 0.0 | 0.0 | 0.00 | 0.00 | 0.00 | 94 | 1017.9 |
| 20260505050933 | 24 | 322 | 0.0 | 0.0 | 0.00 | 0.00 | 0.00 | 94 | 1018.0 |
| 20260505050431 | 24 | 319 | 0.0 | 0.0 | 0.00 | 0.00 | 0.00 | 94 | 1017.9 |
| 20260505041359 | 25 | 279 | 0.0 | 1.6 | 0.00 | 0.00 | 0.00 | 93 | 1018.2 |
| 20260505040856 | 25 | 279 | 0.0 | 1.6 | 0.00 | 0.00 | 0.00 | 93 | 1018.4 |
| 20260505040353 | 25 | 285 | 1.6 | 1.6 | 0.00 | 0.00 | 0.00 | 93 | 1018.3 |
| 20260505035850 | 25 | 246 | 0.0 | 0.0 | 0.00 | 0.23 | 0.23 | 94 | 1018.4 |
| 20260505035345 | 25 | 241 | 0.0 | 0.0 | 0.00 | 0.23 | 0.23 | 94 | 1018.6 |
| 20260505034843 | 25 | 242 | 0.0 | 0.0 | 0.00 | 0.23 | 0.23 | 94 | 1018.6 |
| 20260505034339 | 25 | 238 | 1.6 | 1.6 | 0.00 | 0.23 | 0.23 | 94 | 1018.6 |
| 20260505033837 | 24 | 243 | 0.0 | 1.6 | 0.00 | 0.23 | 0.23 | 94 | 1018.7 |
| 20260505033333 | 24 | 294 | 0.0 | 0.0 | 0.00 | 0.23 | 0.23 | 94 | 1018.7 |
| 20260505032832 | 24 | 295 | 1.6 | 1.6 | 0.00 | 0.23 | 0.23 | 94 | 1018.5 |
| 20260505032328 | 24 | 288 | 1.6 | 1.6 | 0.00 | 0.23 | 0.23 | 94 | 1018.8 |
| 20260505031825 | 24 | 321 | 1.6 | 3.2 | 0.00 | 0.23 | 0.23 | 93 | 1018.7 |
| 20260505031321 | 24 | 309 | 1.6 | 3.2 | 0.00 | 0.23 | 0.23 | 93 | 1018.8 |
| 20260505030819 | 25 | 322 | 1.6 | 1.6 | 0.00 | 0.23 | 0.23 | 93 | 1018.6 |
| 20260505030315 | 25 | 283 | 1.6 | 1.6 | 0.00 | 0.23 | 0.23 | 93 | 1018.6 |
| 20260505025810 | 25 | 288 | 1.6 | 1.6 | 0.00 | 0.23 | 0.23 | 93 | 1018.8 |
| 20260505025308 | 25 | 236 | 0.0 | 1.6 | 0.00 | 0.23 | 0.23 | 93 | 1018.6 |
| 20260505024807 | 25 | 234 | 1.6 | 3.2 | 0.00 | 0.23 | 0.23 | 92 | 1018.7 |
| 20260505024304 | 25 | 266 | 0.0 | 3.2 | 0.00 | 0.23 | 0.23 | 92 | 1018.6 |
| 20260505023801 | 25 | 275 | 0.0 | 0.0 | 0.00 | 0.23 | 0.23 | 92 | 1018.7 |
| 20260505023258 | 25 | 296 | 0.0 | 0.0 | 0.00 | 0.23 | 0.23 | 92 | 1018.6 |
| 20260505022755 | 25 | 295 | 0.0 | 0.0 | 0.00 | 0.23 | 0.23 | 91 | 1018.4 |
| 20260505022252 | 25 | 271 | 0.0 | 1.6 | 0.00 | 0.23 | 0.23 | 91 | 1018.5 |
| 20260505021749 | 25 | 264 | 0.0 | 1.6 | 0.00 | 0.23 | 0.23 | 92 | 1018.4 |
| 20260505021246 | 25 | 258 | 0.0 | 3.2 | 0.00 | 0.23 | 0.23 | 92 | 1018.6 |
| 20260505020741 | 25 | 239 | 0.0 | 1.6 | 0.00 | 0.23 | 0.23 | 91 | 1018.6 |
| 20260505020237 | 25 | 232 | 3.2 | 4.8 | 0.00 | 0.23 | 0.23 | 91 | 1018.6 |
| 20260505015734 | 25 | 293 | 0.0 | 0.0 | 0.00 | 0.23 | 0.23 | 90 | 1018.6 |
| 20260505015231 | 25 | 284 | 0.0 | 3.2 | 0.00 | 0.23 | 0.23 | 89 | 1018.4 |
| 20260505014728 | 25 | 254 | 1.6 | 3.2 | 0.00 | 0.23 | 0.23 | 89 | 1018.4 |
| 20260505014226 | 25 | 249 | 0.0 | 0.0 | 0.00 | 0.23 | 0.23 | 89 | 1018.3 |
| 20260505013722 | 25 | 252 | 0.0 | 0.0 | 0.00 | 0.23 | 0.23 | 88 | 1018.4 |
| 20260505013219 | 26 | 287 | 0.0 | 0.0 | 0.00 | 0.23 | 0.23 | 87 | 1018.3 |
| 20260505012717 | 26 | 267 | 0.0 | 1.6 | 0.00 | 0.23 | 0.23 | 86 | 1018.2 |
| 20260505012214 | 26 | 86 | 1.6 | 1.6 | 0.00 | 0.23 | 0.23 | 87 | 1018.2 |
| 20260505011710 | 26 | 97 | 1.6 | 4.8 | 0.00 | 0.23 | 0.23 | 87 | 1018.1 |
| 20260505011208 | 26 | 65 | 3.2 | 3.2 | 0.00 | 0.23 | 0.23 | 87 | 1017.9 |
| 20260505010703 | 26 | 52 | 0.0 | 1.6 | 0.00 | 0.23 | 0.23 | 87 | 1018.0 |
| 20260505010200 | 26 | 105 | 1.6 | 4.8 | 0.00 | 0.23 | 0.23 | 87 | 1017.8 |
| 20260505005656 | 26 | 86 | 1.6 | 3.2 | 0.00 | 0.23 | 0.23 | 86 | 1017.8 |
| 20260505005153 | 26 | 146 | 0.0 | 0.0 | 0.00 | 0.23 | 0.23 | 86 | 1017.7 |
| 20260505004650 | 26 | 87 | 3.2 | 3.2 | 0.00 | 0.23 | 0.23 | 86 | 1017.9 |
| 20260505004146 | 26 | 90 | 3.2 | 4.8 | 0.00 | 0.23 | 0.23 | 85 | 1017.7 |
| 20260505003644 | 26 | 101 | 3.2 | 3.2 | 0.00 | 0.23 | 0.23 | 85 | 1017.6 |
| 20260505003141 | 26 | 194 | 0.0 | 0.0 | 0.00 | 0.23 | 0.23 | 85 | 1017.7 |
| 20260505002637 | 26 | 91 | 0.0 | 1.6 | 0.00 | 0.23 | 0.23 | 85 | 1017.9 |
| 20260505002136 | 26 | 157 | 3.2 | 3.2 | 0.00 | 0.23 | 0.23 | 85 | 1017.8 |
| 20260505001632 | 26 | 78 | 1.6 | 3.2 | 0.00 | 0.23 | 0.23 | 85 | 1017.7 |
| 20260505001130 | 26 | 149 | 0.0 | 0.0 | 0.00 | 0.23 | 0.23 | 85 | 1017.8 |
| 20260505000627 | 26 | 190 | 1.6 | 3.2 | 0.00 | 0.23 | 0.23 | 85 | 1017.9 |
| 20260505000125 | 26 | 170 | 1.6 | 3.2 | 0.00 | 0.23 | 0.23 | 84 | 1017.6 |
| 20260504235621 | 26 | 156 | 1.6 | 1.6 | 0.00 | 0.23 | 0.23 | 84 | 1017.7 |
| 20260504235117 | 27 | 162 | 3.2 | 3.2 | 0.00 | 0.23 | 0.23 | 82 | 1017.5 |
| 20260504234615 | 27 | 115 | 1.6 | 3.2 | 0.00 | 0.23 | 0.23 | 82 | 1017.5 |
| 20260504234112 | 27 | 175 | 0.0 | 1.6 | 0.00 | 0.23 | 0.23 | 81 | 1017.4 |
| 20260504233607 | 27 | 227 | 3.2 | 4.8 | 0.00 | 0.23 | 0.23 | 80 | 1017.2 |
| 20260504233104 | 27 | 131 | 3.2 | 4.8 | 0.00 | 0.23 | 0.23 | 80 | 1017.3 |
| 20260504232601 | 27 | 134 | 4.8 | 4.8 | 0.00 | 0.23 | 0.23 | 80 | 1017.4 |
| 20260504232059 | 27 | 107 | 1.6 | 3.2 | 0.00 | 0.23 | 0.23 | 80 | 1017.5 |
| 20260504231555 | 27 | 158 | 1.6 | 4.8 | 0.00 | 0.23 | 0.23 | 82 | 1017.4 |
| 20260504231051 | 26 | 108 | 3.2 | 3.2 | 0.00 | 0.23 | 0.23 | 84 | 1017.2 |
| 20260504230547 | 27 | 174 | 3.2 | 6.4 | 0.00 | 0.23 | 0.23 | 82 | 1017.3 |
| 20260504230046 | 27 | 129 | 3.2 | 3.2 | 0.00 | 0.23 | 0.23 | 83 | 1017.3 |
| 20260504225543 | 27 | 117 | 4.8 | 6.4 | 0.00 | 0.23 | 0.23 | 83 | 1017.2 |
| 20260504225040 | 27 | 113 | 4.8 | 4.8 | 0.00 | 0.23 | 0.23 | 83 | 1017.1 |
| 20260504224537 | 27 | 131 | 4.8 | 6.4 | 0.00 | 0.23 | 0.23 | 82 | 1017.3 |
| 20260504224034 | 27 | 182 | 1.6 | 4.8 | 0.00 | 0.23 | 0.23 | 83 | 1017.0 |
| 20260504223531 | 27 | 182 | 4.8 | 6.4 | 0.00 | 0.23 | 0.23 | 82 | 1016.8 |
| 20260504223027 | 27 | 168 | 1.6 | 6.4 | 0.00 | 0.23 | 0.23 | 82 | 1016.9 |
| 20260504222523 | 27 | 178 | 6.4 | 9.7 | 0.00 | 0.23 | 0.23 | 81 | 1017.0 |
| 20260504222021 | 27 | 103 | 6.4 | 6.4 | 0.00 | 0.23 | 0.23 | 81 | 1016.8 |
| 20260504221518 | 27 | 129 | 3.2 | 11.3 | 0.00 | 0.23 | 0.23 | 81 | 1016.7 |
| 20260504221015 | 27 | 145 | 8.0 | 12.9 | 0.00 | 0.23 | 0.23 | 79 | 1016.6 |
| 20260504220511 | 27 | 126 | 4.8 | 12.9 | 0.00 | 0.23 | 0.23 | 79 | 1016.7 |
| 20260504220009 | 27 | 154 | 11.3 | 14.5 | 0.00 | 0.23 | 0.23 | 77 | 1016.7 |
| 20260504215505 | 27 | 72 | 8.0 | 14.5 | 0.00 | 0.23 | 0.23 | 76 | 1016.6 |
| 20260504215003 | 28 | 148 | 8.0 | 16.1 | 0.00 | 0.23 | 0.23 | 75 | 1016.4 |
| 20260504214458 | 28 | 142 | 4.8 | 14.5 | 0.00 | 0.23 | 0.23 | 75 | 1016.2 |
| 20260504213955 | 28 | 120 | 9.7 | 12.9 | 0.00 | 0.23 | 0.23 | 75 | 1016.0 |
| 20260504213450 | 27 | 68 | 8.0 | 11.3 | 0.00 | 0.23 | 0.23 | 76 | 1016.3 |
| 20260504212948 | 27 | 105 | 9.7 | 14.5 | 0.00 | 0.23 | 0.23 | 76 | 1016.4 |
| 20260504212444 | 28 | 106 | 9.7 | 16.1 | 0.00 | 0.23 | 0.23 | 76 | 1016.1 |
| 20260504211942 | 28 | 120 | 8.0 | 14.5 | 0.00 | 0.23 | 0.23 | 77 | 1016.1 |
| 20260504211438 | 28 | 110 | 8.0 | 14.5 | 0.00 | 0.23 | 0.23 | 78 | 1016.2 |
| 20260504210936 | 27 | 105 | 8.0 | 11.3 | 0.00 | 0.23 | 0.23 | 79 | 1016.1 |
| 20260504210432 | 27 | 94 | 9.7 | 12.9 | 0.00 | 0.23 | 0.23 | 81 | 1016.1 |
| 20260504205929 | 27 | 159 | 9.7 | 12.9 | 0.00 | 0.23 | 0.23 | 81 | 1016.1 |
| 20260504205427 | 27 | 151 | 6.4 | 16.1 | 0.00 | 0.23 | 0.23 | 82 | 1015.9 |
| 20260504204925 | 27 | 67 | 9.7 | 12.9 | 0.00 | 0.23 | 0.23 | 83 | 1016.1 |
| 20260504204423 | 26 | 142 | 8.0 | 14.5 | 0.00 | 0.23 | 0.23 | 84 | 1016.1 |
| 20260504203922 | 26 | 104 | 8.0 | 14.5 | 0.00 | 0.23 | 0.23 | 84 | 1016.1 |
| 20260504203419 | 26 | 186 | 8.0 | 14.5 | 0.00 | 0.23 | 0.23 | 84 | 1016.2 |
| 20260504202915 | 27 | 130 | 12.9 | 20.9 | 0.00 | 0.23 | 0.23 | 81 | 1016.2 |
| 20260504202412 | 27 | 149 | 8.0 | 17.7 | 0.00 | 0.23 | 0.23 | 80 | 1016.2 |
| 20260504201909 | 27 | 57 | 9.7 | 12.9 | 0.00 | 0.23 | 0.23 | 79 | 1016.3 |
| 20260504201406 | 27 | 157 | 3.2 | 14.5 | 0.00 | 0.23 | 0.23 | 79 | 1016.3 |
| 20260504200903 | 27 | 148 | 6.4 | 14.5 | 0.00 | 0.23 | 0.23 | 80 | 1016.2 |
| 20260504200400 | 27 | 120 | 8.0 | 16.1 | 0.00 | 0.23 | 0.23 | 80 | 1016.4 |
| 20260504195856 | 27 | 133 | 12.9 | 16.1 | 0.00 | 0.23 | 0.23 | 81 | 1016.3 |
| 20260504195352 | 27 | 125 | 9.7 | 16.1 | 0.00 | 0.23 | 0.23 | 83 | 1016.2 |
| 20260504194849 | 27 | 144 | 11.3 | 14.5 | 0.00 | 0.23 | 0.23 | 82 | 1016.3 |
| 20260504194345 | 28 | 174 | 16.1 | 20.9 | 0.00 | 0.23 | 0.23 | 78 | 1016.3 |
| 20260504193841 | 27 | 129 | 8.0 | 11.3 | 0.00 | 0.23 | 0.23 | 81 | 1016.3 |
| 20260504193338 | 27 | 158 | 11.3 | 17.7 | 0.00 | 0.23 | 0.23 | 80 | 1016.4 |
| 20260504192837 | 28 | 148 | 9.7 | 14.5 | 0.00 | 0.23 | 0.23 | 80 | 1016.4 |
| 20260504192335 | 28 | 130 | 8.0 | 14.5 | 0.00 | 0.23 | 0.23 | 79 | 1016.2 |
| 20260504191833 | 28 | 123 | 9.7 | 16.1 | 0.00 | 0.23 | 0.23 | 79 | 1016.4 |
| 20260504191330 | 27 | 136 | 11.3 | 12.9 | 0.00 | 0.23 | 0.23 | 81 | 1016.3 |
| 20260504190825 | 28 | 151 | 11.3 | 20.9 | 0.00 | 0.23 | 0.23 | 81 | 1016.7 |
| 20260504190322 | 27 | 156 | 9.7 | 20.9 | 0.00 | 0.23 | 0.23 | 85 | 1016.6 |
| 20260504185818 | 27 | 138 | 4.8 | 20.9 | 0.00 | 0.23 | 0.23 | 85 | 1016.6 |
| 20260504185315 | 27 | 150 | 3.2 | 12.9 | 0.18 | 0.23 | 0.23 | 86 | 1016.5 |
| 20260504184811 | 27 | 94 | 14.5 | 20.9 | 0.18 | 0.23 | 0.23 | 83 | 1016.6 |
| 20260504184307 | 27 | 122 | 11.3 | 17.7 | 0.00 | 0.20 | 0.20 | 83 | 1016.5 |
| 20260504183803 | 28 | 113 | 9.7 | 24.1 | 0.00 | 0.20 | 0.20 | 78 | 1016.5 |
| 20260504183300 | 27 | 62 | 9.7 | 22.5 | 0.00 | 0.20 | 0.20 | 81 | 1016.8 |
| 20260504182758 | 27 | 121 | 12.9 | 17.7 | 0.00 | 0.20 | 0.20 | 82 | 1016.8 |
| 20260504182255 | 27 | 143 | 11.3 | 16.1 | 0.00 | 0.20 | 0.20 | 84 | 1016.7 |
| 20260504181753 | 27 | 195 | 8.0 | 16.1 | 0.00 | 0.20 | 0.20 | 84 | 1017.1 |
| 20260504181250 | 27 | 122 | 14.5 | 16.1 | 0.00 | 0.20 | 0.20 | 83 | 1017.0 |
| 20260504180749 | 27 | 132 | 19.3 | 24.1 | 0.00 | 0.20 | 0.20 | 80 | 1017.0 |
| 20260504180247 | 28 | 140 | 9.7 | 17.7 | 0.00 | 0.20 | 0.20 | 81 | 1016.9 |
| 20260504175745 | 27 | 99 | 16.1 | 22.5 | 0.00 | 0.20 | 0.20 | 82 | 1017.0 |
| 20260504175241 | 27 | 131 | 11.3 | 17.7 | 0.00 | 0.20 | 0.20 | 85 | 1017.1 |
| 20260504174739 | 27 | 107 | 12.9 | 17.7 | 0.00 | 0.20 | 0.20 | 87 | 1017.2 |
| 20260504174237 | 26 | 118 | 16.1 | 17.7 | 0.13 | 0.20 | 0.20 | 89 | 1017.3 |
| 20260504173733 | 26 | 119 | 11.3 | 16.1 | 0.79 | 0.20 | 0.20 | 88 | 1017.4 |
| 20260504173230 | 28 | 124 | 24.1 | 30.6 | 0.36 | 0.13 | 0.13 | 74 | 1017.5 |
| 20260504172727 | 29 | 64 | 8.0 | 20.9 | 0.00 | 0.08 | 0.08 | 73 | 1017.4 |
| 20260504172223 | 29 | 104 | 11.3 | 14.5 | 0.00 | 0.08 | 0.08 | 73 | 1017.3 |
| 20260504171720 | 29 | 152 | 9.7 | 17.7 | 0.00 | 0.08 | 0.08 | 71 | 1017.3 |
| 20260504171217 | 29 | 134 | 11.3 | 17.7 | 0.00 | 0.08 | 0.08 | 74 | 1017.5 |
| 20260504170714 | 28 | 91 | 11.3 | 17.7 | 0.00 | 0.08 | 0.08 | 74 | 1017.5 |
| 20260504170211 | 29 | 124 | 14.5 | 20.9 | 0.00 | 0.08 | 0.08 | 73 | 1017.5 |
| 20260504160129 | 28 | 71 | 4.8 | 20.9 | 0.00 | 0.08 | 0.08 | 73 | 1018.3 |
| 20260504151057 | 29 | 102 | 17.7 | 25.7 | 0.00 | 0.08 | 0.08 | 67 | 1018.4 |
| 20260504150554 | 29 | 103 | 17.7 | 25.7 | 0.00 | 0.08 | 0.08 | 67 | 1018.5 |
| 20260504141020 | 28 | 74 | 12.9 | 30.6 | 0.00 | 0.08 | 0.08 | 71 | 1018.4 |
| 20260504140516 | 28 | 86 | 17.7 | 25.7 | 0.00 | 0.08 | 0.08 | 74 | 1018.4 |
| 20260504130441 | 27 | 102 | 11.3 | 16.1 | 0.00 | 0.03 | 0.03 | 84 | 1018.6 |